Regional & State Weather Roundups


773 
ASUS44 KMOB 110012
RWRMOB
REGIONAL WEATHER ROUNDUP
NATIONAL WEATHER SERVICE MOBILE AL
600 PM CST SUN DEC 10 2017
NOTE: "FAIR" INDICATES FEW OR NO CLOUDS BELOW 12,000 FEET WITH NO
      SIGNIFICANT WEATHER AND/OR OBSTRUCTIONS TO VISIBILITY.
  * THESE STATIONS ARE PART OF THE UNIVERSITY OF SOUTH ALABAMA 
    MESONET AND ARE NOT UNDER NWS OR FAA QUALITY CONTROL. 
ALZ061>064-110100-
COASTAL ALABAMA
  
CITY           SKY/WX    TMP DP  RH WIND       PRES   REMARKS
MOBILE REG APT CLEAR     46  36  68 S3        30.33R                  
6HR MIN TEMP:  46; 6HR MAX TEMP:  57;                                
BROOKLEY FIELD CLEAR     46  38  73 SW5       30.35R                  
6HR MIN TEMP:  46; 6HR MAX TEMP:  52; 6HR PCP: TRACE;                
USA CAMPUS*    NOT AVBL                                               
DOG RIVER*     NOT AVBL                                               
  
CITY           SKY/WX    TMP DP  RH WIND       PRES   REMARKS
GULF SHORES    CLEAR     38  35  89 CALM      30.33S                  
$$
ALZ051>060-110100-
INTERIOR SOUTHWEST AND SOUTH CENTRAL ALABAMA
  
CITY           SKY/WX    TMP DP  RH WIND       PRES   REMARKS
GREENVILLE     CLEAR     39  31  72 CALM      30.28R                  
6HR MIN TEMP:  39; 6HR MAX TEMP:  52;                                
EVERGREEN      CLEAR     39  34  82 CALM      30.31R                  
6HR MIN TEMP:  39; 6HR MAX TEMP:  54;                                
ATMORE*          N/A    N/A N/A N/A SW2         N/A                   
ANDALUSIA/OPP  CLEAR     41  32  70 CALM      30.30R                  
6HR MIN TEMP:  41; 6HR MAX TEMP:  54;                                
ANDALUSIA*       N/A     43  32  65 SW3       30.29R                  
FLORALA APT    CLEAR     37  32  82 CALM      30.33R                  
6HR MIN TEMP:  37; 6HR MAX TEMP:  53;                                
FLORALA*         N/A     37  34  87 CALM      31.08R                  
$$
FLZ001>006-110100-
WESTERN FLORIDA PANHANDLE
  
CITY           SKY/WX    TMP DP  RH WIND       PRES   REMARKS
PENSACOLA      CLEAR     48  34  58 W9        30.32R                  
6HR MIN TEMP:  46; 6HR MAX TEMP:  56;                                
NAS PENSACOLA  CLEAR     45  32  60 W3        30.33R                  
6HR MIN TEMP:  45; 6HR MAX TEMP:  56;                                
MILTON         CLEAR     39  34  82 CALM      30.32R                  
6HR MIN TEMP:  38; 6HR MAX TEMP:  53;                                
WHTNG S FIELD  CLEAR     47  35  63 SW3       30.33R                  
6HR MIN TEMP:  46; 6HR MAX TEMP:  58;                                
  
CITY           SKY/WX    TMP DP  RH WIND       PRES   REMARKS
JAY*             N/A     43  32  65 CALM      30.32R                  
DUKE FIELD     CLEAR     39  30  70 CALM      30.32R                  
CRESTVIEW      CLEAR     39  33  79 CALM      30.33R                  
6HR MIN TEMP:  38; 6HR MAX TEMP:  55;                                
VALPARAISO     CLEAR     46  31  56 W7        30.32R                  
6HR MIN TEMP:  45; 6HR MAX TEMP:  56;                                
DESTIN         CLEAR     51  30  44 CALM      30.33R                  
6HR MIN TEMP:  51; 6HR MAX TEMP:  58;                                
$$
MSZ076-079-110100-
INTERIOR SOUTHEAST MISSISSIPPI
  
CITY           SKY/WX    TMP DP  RH WIND       PRES   REMARKS
LEAKESVILLE*     N/A     45  37  76 CALM      30.31S                  
AGRICOLA*        N/A     43  37  81 CALM      30.31R                  
$$
MARINE OBSERVATIONS
  
STATION/POSITION TIME  TEMP    WIND        PRES    WAVE
                       AIR SEA DIR/SP/G            HT/PER
                 (UTC) (F)     (DEG/KT/KT) (MB)    (FT/S)
PASCAGOULA       2348   51     240/  4/  5 1027.0R
PETIT BOIS ISLND 2348   53     250/ 10/ 11 1027.9R
KATRINA CUT      2330   52     250/ 11     1027.1F
CEDAR POINT      2300   51     240/  9     1026.8
E DAUPHIN ISLAND 2300   51     230/  6/  9 1026.8F
MIDDLE BAY LIGHT 2330   51     160/  4     1027.1S
USCG MOBILE BAY  2348   47 56  240/  3/  6 1027.2R
STATE DOCKS      2342   49 58              1026.8R
MEAHER PARK      2330   50     190/ 10     1027.1F
WEEKS BAY        2245   46                 1027.0S
FORT MORGAN      2348   52     240/  8/  9   N/A
12 S ORANGE BCH  NOT AVBL
PENSACOLA BAY    2342   49 55              1027.2R
64 S DAUPHIN ISL 2350   58 74  290/ 10/ 14 1027.7R   2/ 8
67 S FORT MORGAN 2330   58                 1027.4R
$$
SELECTED LOCATIONS ACROSS THE REGION
  
CITY           SKY/WX    TMP DP  RH WIND       PRES   REMARKS
NEW ORLEANS    PTCLDY    49  39  68 CALM      30.33S                  
GULFPORT       CLEAR     45  40  82 CALM      30.33R                  
PASCAGOULA AP  CLEAR     39  36  89 CALM      30.33S                  
PASCAGOULA*      N/A     43  41  93 CALM        N/A                   
HATTIESBURG    CLEAR     43  39  86 CALM      30.31S                  
LAUREL         CLEAR     39  37  92 CALM      30.31R                  
MERIDIAN       CLEAR     40  34  79 S6        30.28S                  
JACKSON        CLEAR     43  28  55 SW3       30.28R                  
MONTGOMERY     CLEAR     42  26  53 CALM      30.30R                  
TROY           CLEAR     39  32  76 CALM      30.30R                  
ASHFORD*         N/A     43  32  65 SW3       30.29R                  
DOTHAN         CLEAR     45  28  51 W6        30.32S                  
PANAMA CITY    CLEAR     42  35  76 CALM      30.31R                  
$$